This is the latest recevied weather packets stored in our database for station/object K4ZZR. If no packets are shown the sender has not sent any weather packets the latest 10 day(s).
| Time | Temp. | Humidity | Pressure | Rain* | Wind** | Luminosity | Snow |
|---|---|---|---|---|---|---|---|
| 1778029843 | 24.44° C | 85% | 1015.2 hPa | 0 mm | - | 0 W/m² | - |
| 1778029543 | 24.44° C | 84% | 1015.1 hPa | 0 mm | - | 0 W/m² | - |
| 1778029239 | 24.44° C | 85% | 1015 hPa | 0 mm | - | 0 W/m² | - |
| 1778028936 | 24.44° C | 85% | 1014.9 hPa | 0 mm | - | 0 W/m² | - |
| 1778028632 | 24.44° C | 85% | 1014.9 hPa | 0 mm | - | 0 W/m² | - |
| 1778028329 | 24.44° C | 86% | 1015 hPa | 0 mm | - | 0 W/m² | - |
| 1778028026 | 24.44° C | 85% | 1014.9 hPa | 0 mm | - | 0 W/m² | - |
| 1778027722 | 24.44° C | 85% | 1014.9 hPa | 0 mm | - | 0 W/m² | - |
| 1778027418 | 24.44° C | 85% | 1014.7 hPa | 0 mm | - | 0 W/m² | - |
| 1778027114 | 24.44° C | 85% | 1014.7 hPa | 0 mm | - | 0 W/m² | - |
| 1778026810 | 24.44° C | 85% | 1014.8 hPa | 0 mm | - | 0 W/m² | - |
| 1778026507 | 24.44° C | 85% | 1014.8 hPa | 0 mm | - | 0 W/m² | - |
| 1778026204 | 24.44° C | 85% | 1014.9 hPa | 0 mm | - | 0 W/m² | - |
| 1778025901 | 24.44° C | 86% | 1014.8 hPa | 0 mm | - | 1 W/m² | - |
| 1778025598 | 24.44° C | 86% | 1014.7 hPa | 0 mm | - | 1 W/m² | - |
| 1778025297 | 25° C | 86% | 1014.8 hPa | 0 mm | - | 3 W/m² | - |
| 1778024993 | 25° C | 85% | 1014.9 hPa | 0 mm | - | 5 W/m² | - |
| 1778024690 | 25° C | 84% | 1014.6 hPa | 0 mm | - | 9 W/m² | - |
| 1778024387 | 25° C | 85% | 1014.7 hPa | 0 mm | - | 14 W/m² | - |
| 1778024085 | 25° C | 84% | 1015 hPa | 0 mm | - | 22 W/m² | - |
| 1778023782 | 25° C | 84% | 1014.7 hPa | 0 mm | - | 27 W/m² | - |
| 1778023480 | 25° C | 84% | 1014.8 hPa | 0 mm | - | 33 W/m² | - |
| 1778023177 | 25° C | 84% | 1014.8 hPa | 0 mm | - | 37 W/m² | - |
| 1778022874 | 25° C | 84% | 1014.9 hPa | 0 mm | - | 41 W/m² | - |
| 1778022572 | 25° C | 83% | 1014.8 hPa | 0 mm | - | 44 W/m² | - |
* Rain latest hour (hover to see other rain measurements)
** Current wind speed in m/s (hover to see current wind gust speed)